Regional Weather Roundup
Issued by NWS

Home | Current Version | Previous Version | Text Only | Print | Product List | Glossary On
Versions: 1 2 3 4 5 6 7 8 9 10 11 12 13 14 15 16 17 18 19 20 21 22 23 24 25 26 27 28 29 30 31 32 33 34 35 36 37 38 39 40 41 42 43 44 45 46 47 48 49 50
000
ASCA42 TJSJ 231510
RWRPR
PUERTO RICO/U.S. VIRGIN ISLANDS HOURLY WEATHER ROUNDUP
NATIONAL WEATHER SERVICE SAN JUAN PR
1100 AM AST TUE MAY 23 2017

PRZ001>002-007>008-010-231600-
PUERTO RICO

CITY           SKY/WX    TMP DP  RH WIND       PRES   REMARKS
SAN JUAN LMM   MOSUNNY   88  75  66 NE16      30.07F HX  97
AGUADILLA      SUNNY     84  73  70 E14       30.08F HX  91
CEIBA          SUNNY     86  75  70 E14       30.10F HX  95
$$

VIZ001>002-231600-
U.S. VIRGIN ISLANDS

CITY           SKY/WX    TMP DP  RH WIND       PRES   REMARKS
CHARLOTTE AMA  CLOUDY    88  75  66 SE16      30.07F HX  97
CHRISTIANSTED  MOSUNNY   88  75  66 SE15      30.09S HX  97
$$

HOURLY WEATHER ROUNDUP FOR THE NEWS MEDIA

CITY           SKY/WX    TMP DP  RH WIND       PRES   REMARKS
ORLANDO        PTSUNNY   83  73  72 SW15      29.94F
NEW YORK       CLOUDY    65  49  56 NE12      29.96S
NEWARK         CLOUDY    65  49  56 N8        29.96R
CHICAGO        LGT RAIN  59  55  87 SW10      29.81S
HARTFORD       PTSUNNY   62  54  74 VRB5      29.90F
BOSTON         MOSUNNY   64  49  57 N8        29.91F
DALLAS         CLOUDY    68  61  78 VRB5      29.91S THUNDER
PHILADELPHIA   CLOUDY    64  55  72 NE9       29.96S
LOS ANGELES    PTSUNNY   62  58  86 CALM      29.95S FOG
WASHINGTON DC  CLOUDY    62  54  74 E6        29.96F


USA.gov is the U.S. government's official web portal to all federal, state and local government web resources and services.